This is the latest recevied weather packets stored in our database for station/object LROP. If no packets are shown the sender has not sent any weather packets the latest 10 day(s).
| Time | Temp. | Humidity | Pressure | Rain* | Wind** | Luminosity | Snow |
|---|---|---|---|---|---|---|---|
| 1777958282 | 12.78° C | 77% | 1016 hPa | - | - | - | - |
| 1777957382 | 12.78° C | 77% | 1016 hPa | - | - | - | - |
| 1777956482 | 11.11° C | 88% | 1016 hPa | - | - | - | - |
| 1777955582 | 11.11° C | 88% | 1016 hPa | - | - | - | - |
| 1777954682 | 10° C | 88% | 1015 hPa | - | - | - | - |
| 1777953781 | 10° C | 88% | 1015 hPa | - | - | - | - |
| 1777952882 | 8.89° C | 94% | 1015 hPa | - | - | - | - |
| 1777951982 | 8.89° C | 94% | 1015 hPa | - | - | - | - |
| 1777951082 | 7.78° C | 93% | 1015 hPa | - | - | - | - |
| 1777950182 | 7.78° C | 93% | 1015 hPa | - | - | - | - |
| 1777949282 | 8.89° C | 94% | 1015 hPa | - | - | - | - |
| 1777948382 | 8.89° C | 94% | 1015 hPa | - | - | - | - |
| 1777947482 | 7.78° C | 93% | 1015 hPa | - | - | - | - |
| 1777946582 | 7.78° C | 93% | 1015 hPa | - | - | - | - |
| 1777945682 | 8.89° C | 94% | 1015 hPa | - | - | - | - |
| 1777944782 | 8.89° C | 94% | 1015 hPa | - | - | - | - |
| 1777943882 | 8.89° C | 87% | 1015 hPa | - | - | - | - |
| 1777942983 | 8.89° C | 87% | 1015 hPa | - | - | - | - |
| 1777942082 | 10° C | 88% | 1015 hPa | - | - | - | - |
| 1777941182 | 10° C | 88% | 1015 hPa | - | - | - | - |
| 1777940282 | 11.11° C | 82% | 1015 hPa | - | - | - | - |
| 1777939382 | 11.11° C | 82% | 1015 hPa | - | - | - | - |
| 1777938482 | 11.11° C | 82% | 1015 hPa | - | - | - | - |
| 1777937582 | 11.11° C | 82% | 1015 hPa | - | - | - | - |
| 1777936682 | 11.11° C | 82% | 1015 hPa | - | - | - | - |
* Rain since midnight (hover to see other rain measurements)
** Current wind speed in m/s (hover to see current wind gust speed)